User: anonymous   Login
Location: Austin
(30.3000°N, 97.7500°W)
Time: 13:11:52
(UTC-05:00)
Language:

Cosmos 1241 Rocket - Orbit

View from above orbital plane
View from above orbital plane
View from above satellite
View from above satellite

Ground track
Ground track

The orbit data is extracted from the following two-line orbital elements,

1 12150U 81006B   25173.54395701  .00000017  00000-0  97274-4 0  9997
2 12150  65.8213   9.7507 0057699 217.1872 142.5190 13.77424922232008
Epoch (UTC): 22 June 2025 13:03:17
Eccentricity: 0.0057699
inclination: 65.8213°
perigee height: 930 km
apogee height: 1015 km
right ascension of ascending node: 9.7507°
argument of perigee: 217.1872°
revolutions per day: 13.77424922
mean anomaly at epoch: 142.5190°
orbit number at epoch: 23200

The dashed part of the orbit path shows where the satellite is in the earth's shadow,  

DLR